MNB152 LFPG-EDDK

Flight info

Callsign MNB152
Flight time 0h 41m
Altitude 23000
Route RANUX DCT VALEK DCT LUTAX UM163 DIK N853 ARCKY T853 IBESA T860 ERUKI T856 DEPOK DEPOK2V
Aircraft A333/H-SDE3GHIJ2J3J5M1RVWXY/LB2D1

Departure

Time 2026-04-26 14:06
Airport Charles de Gaulle International Airport (LFPG)

Arrival

Time 2026-04-26 14:48
Airport Cologne Bonn Airport (EDDK)
Time Latitude Longitude Altitude Speed Heading
2026-04-26 13:38 49.00018 2.54497 358 ft 0 kts 355°
2026-04-26 13:58 49.00017 2.54497 358 ft 1 kts 355°
2026-04-26 13:59 48.99993 2.54500 365 ft 4 kts 355°
2026-04-26 13:59 48.99966 2.54503 361 ft 4 kts
2026-04-26 13:59 48.99939 2.54501 360 ft 4 kts
2026-04-26 14:00 48.99923 2.54497 358 ft 0 kts
2026-04-26 14:03 48.99926 2.54498 358 ft 1 kts
2026-04-26 14:03 48.99936 2.54521 367 ft 2 kts 76°
2026-04-26 14:03 48.99938 2.54589 361 ft 11 kts 87°
2026-04-26 14:04 48.99943 2.54717 364 ft 13 kts 86°
2026-04-26 14:04 48.99930 2.54810 366 ft 5 kts 150°
2026-04-26 14:04 48.99891 2.54818 364 ft 7 kts 174°
2026-04-26 14:04 48.99831 2.54827 359 ft 10 kts 174°
2026-04-26 14:05 48.99762 2.54862 366 ft 12 kts 145°
2026-04-26 14:05 48.99704 2.54995 365 ft 17 kts 116°
2026-04-26 14:05 48.99647 2.55169 367 ft 19 kts 116°
2026-04-26 14:05 48.99589 2.55359 363 ft 21 kts 105°
2026-04-26 14:06 48.99588 2.55616 361 ft 37 kts 85°
2026-04-26 14:06 48.99630 2.56354 367 ft 104 kts 85°
2026-04-26 14:06 48.99705 2.57769 376 ft 162 kts 85°
2026-04-26 14:06 48.99788 2.59469 1268 ft 159 kts 83°
2026-04-26 14:07 48.99864 2.61204 2020 ft 175 kts 86°
2026-04-26 14:07 48.99971 2.63234 2370 ft 211 kts 84°
2026-04-26 14:07 49.00111 2.65608 2884 ft 239 kts 83°
2026-04-26 14:07 49.00257 2.68206 3754 ft 249 kts 84°
2026-04-26 14:08 49.00395 2.70857 4691 ft 255 kts 85°
2026-04-26 14:08 49.00539 2.73570 5569 ft 263 kts 85°
2026-04-26 14:08 49.00685 2.76400 6530 ft 269 kts 85°
2026-04-26 14:08 49.00831 2.79243 7459 ft 273 kts 85°
2026-04-26 14:09 49.00981 2.82170 8415 ft 278 kts 85°
2026-04-26 14:09 49.01133 2.85128 9363 ft 283 kts 85°
2026-04-26 14:09 49.01286 2.88119 10285 ft 288 kts 85°
2026-04-26 14:09 49.01447 2.91281 10849 ft 307 kts 84°
2026-04-26 14:10 49.01714 2.94599 11210 ft 328 kts 80°
2026-04-26 14:10 49.02105 2.98082 11784 ft 342 kts 79°
2026-04-26 14:10 49.02529 3.01688 12534 ft 349 kts 79°
2026-04-26 14:10 49.02963 3.05392 13388 ft 354 kts 79°
2026-04-26 14:11 49.03843 3.12866 14892 ft 365 kts 79°
2026-04-26 14:11 49.04290 3.16706 15644 ft 370 kts 79°
2026-04-26 14:11 49.04729 3.20574 16337 ft 375 kts 79°
2026-04-26 14:12 49.05180 3.24551 17099 ft 380 kts 79°
2026-04-26 14:12 49.05630 3.28522 17823 ft 385 kts 79°
2026-04-26 14:12 49.06084 3.32538 18511 ft 390 kts 79°
2026-04-26 14:12 49.06550 3.36655 19123 ft 394 kts 79°
2026-04-26 14:13 49.07486 3.44969 20401 ft 401 kts 79°
2026-04-26 14:13 49.07956 3.49160 21029 ft 404 kts 79°
2026-04-26 14:13 49.08427 3.53386 21626 ft 408 kts 79°
2026-04-26 14:14 49.08809 3.57691 22236 ft 412 kts 82°
2026-04-26 14:14 49.09115 3.62085 22826 ft 416 kts 82°
2026-04-26 14:14 49.09404 3.66457 23177 ft 418 kts 83°
2026-04-26 14:14 49.09697 3.70895 23238 ft 417 kts 83°
2026-04-26 14:15 49.09985 3.75256 23235 ft 417 kts 82°
2026-04-26 14:15 49.10327 3.79632 23238 ft 416 kts 78°
2026-04-26 14:15 49.11102 3.83896 23233 ft 413 kts 66°
2026-04-26 14:15 49.12424 3.87709 23236 ft 410 kts 55°
2026-04-26 14:16 49.14062 3.91304 23236 ft 409 kts 51°
2026-04-26 14:16 49.15806 3.94682 23235 ft 408 kts 48°
2026-04-26 14:16 49.17625 3.97995 23237 ft 408 kts 47°
2026-04-26 14:16 49.19487 4.01318 23237 ft 408 kts 47°
2026-04-26 14:17 49.21327 4.04605 23238 ft 408 kts 47°
2026-04-26 14:17 49.23147 4.07891 23232 ft 408 kts 47°
2026-04-26 14:17 49.24983 4.11240 23233 ft 409 kts 48°
2026-04-26 14:17 49.26813 4.14610 23232 ft 409 kts 48°
2026-04-26 14:18 49.28610 4.17939 23234 ft 410 kts 48°
2026-04-26 14:18 49.30432 4.21329 23235 ft 410 kts 48°
2026-04-26 14:18 49.32225 4.24670 23236 ft 410 kts 48°
2026-04-26 14:18 49.34031 4.28039 23236 ft 410 kts 48°
2026-04-26 14:19 49.35838 4.31414 23233 ft 410 kts 48°
2026-04-26 14:19 49.37659 4.34818 23233 ft 410 kts 48°
2026-04-26 14:19 49.39462 4.38191 23233 ft 410 kts 48°
2026-04-26 14:19 49.41256 4.41554 23232 ft 410 kts 48°
2026-04-26 14:20 49.43085 4.44983 23241 ft 410 kts 48°
2026-04-26 14:20 49.44878 4.48349 23234 ft 410 kts 48°
2026-04-26 14:20 49.46675 4.51727 23234 ft 410 kts 48°
2026-04-26 14:20 49.48474 4.55113 23232 ft 410 kts 48°
2026-04-26 14:21 49.50296 4.58547 23234 ft 411 kts 48°
2026-04-26 14:21 49.52092 4.61938 23232 ft 411 kts 49°
2026-04-26 14:21 49.53886 4.65328 23240 ft 411 kts 49°
2026-04-26 14:21 49.55679 4.68722 23233 ft 411 kts 49°
2026-04-26 14:22 49.57496 4.72166 23235 ft 411 kts 49°
2026-04-26 14:22 49.59298 4.75585 23236 ft 411 kts 49°
2026-04-26 14:22 49.61082 4.78975 23237 ft 411 kts 49°
2026-04-26 14:22 49.62879 4.82394 23234 ft 411 kts 49°
2026-04-26 14:23 49.64663 4.85791 23248 ft 411 kts 49°
2026-04-26 14:23 49.66479 4.89256 23238 ft 411 kts 49°
2026-04-26 14:23 49.68269 4.92677 23233 ft 410 kts 49°
2026-04-26 14:23 49.70051 4.96084 23243 ft 410 kts 49°
2026-04-26 14:24 49.71836 4.99501 23239 ft 409 kts 48°
2026-04-26 14:24 49.73635 5.02951 23241 ft 409 kts 48°
2026-04-26 14:24 49.75409 5.06356 23235 ft 408 kts 48°
2026-04-26 14:24 49.77180 5.09759 23242 ft 408 kts 48°
2026-04-26 14:25 49.78976 5.13216 23239 ft 408 kts 48°
2026-04-26 14:25 49.80738 5.16610 23242 ft 409 kts 48°
2026-04-26 14:25 49.82526 5.20060 23241 ft 409 kts 48°
2026-04-26 14:25 49.84290 5.23467 23240 ft 409 kts 48°
2026-04-26 14:26 49.86085 5.26940 23247 ft 409 kts 48°
2026-04-26 14:26 49.87841 5.30341 23244 ft 409 kts 49°
2026-04-26 14:26 49.89630 5.33810 23246 ft 409 kts 48°
2026-04-26 14:26 49.91394 5.37235 23242 ft 409 kts 49°
2026-04-26 14:27 49.93164 5.40678 23239 ft 409 kts 49°
2026-04-26 14:27 49.94927 5.44114 23246 ft 409 kts 49°
2026-04-26 14:27 49.96115 5.46429 23255 ft 409 kts 49°
2026-04-26 14:27 49.98479 5.51045 23243 ft 407 kts 48°
2026-04-26 14:28 50.00220 5.54451 23242 ft 406 kts 48°
2026-04-26 14:28 50.01976 5.57888 23240 ft 406 kts 48°
2026-04-26 14:28 50.03143 5.60175 23245 ft 406 kts 48°
2026-04-26 14:28 50.04912 5.63647 23240 ft 406 kts 48°
2026-04-26 14:29 50.07224 5.68186 23243 ft 406 kts 48°
2026-04-26 14:29 50.08407 5.70513 23241 ft 406 kts 48°
2026-04-26 14:29 50.10144 5.73933 23131 ft 406 kts 48°
2026-04-26 14:29 50.12460 5.78503 22591 ft 404 kts 49°
2026-04-26 14:30 50.13629 5.80812 22305 ft 403 kts 49°
2026-04-26 14:30 50.15377 5.84268 21886 ft 401 kts 49°
2026-04-26 14:30 50.17090 5.87649 21474 ft 399 kts 49°
2026-04-26 14:30 50.18815 5.91044 21083 ft 397 kts 49°
2026-04-26 14:31 50.20522 5.94394 20712 ft 395 kts 49°
2026-04-26 14:31 50.22213 5.97702 20357 ft 392 kts 49°
2026-04-26 14:31 50.23942 6.01062 19948 ft 390 kts 49°
2026-04-26 14:31 50.25627 6.04319 19540 ft 389 kts 49°
2026-04-26 14:32 50.27328 6.07590 19147 ft 387 kts 49°
2026-04-26 14:32 50.29030 6.10866 18719 ft 386 kts 51°
2026-04-26 14:32 50.30472 6.14380 18305 ft 386 kts 60°
2026-04-26 14:32 50.31658 6.18118 17837 ft 384 kts 63°
2026-04-26 14:33 50.32812 6.21896 17363 ft 382 kts 63°
2026-04-26 14:33 50.33945 6.25620 16893 ft 379 kts 63°
2026-04-26 14:33 50.35076 6.29348 16432 ft 376 kts 63°
2026-04-26 14:33 50.36182 6.33003 15973 ft 373 kts 63°
2026-04-26 14:34 50.37283 6.36638 15532 ft 371 kts 63°
2026-04-26 14:34 50.38390 6.40302 15095 ft 368 kts 63°
2026-04-26 14:34 50.39478 6.43904 14658 ft 366 kts 63°
2026-04-26 14:34 50.40563 6.47503 14213 ft 363 kts 63°
2026-04-26 14:35 50.41632 6.51053 13780 ft 361 kts 63°
2026-04-26 14:35 50.42693 6.54587 13318 ft 358 kts 63°
2026-04-26 14:35 50.43751 6.58137 12837 ft 355 kts 63°
2026-04-26 14:35 50.44785 6.61602 12384 ft 352 kts 63°
2026-04-26 14:36 50.45805 6.65044 11934 ft 349 kts 63°
2026-04-26 14:36 50.46827 6.68511 11494 ft 345 kts 63°
2026-04-26 14:36 50.47826 6.71920 11037 ft 343 kts 63°
2026-04-26 14:36 50.48810 6.75288 10620 ft 339 kts 63°
2026-04-26 14:37 50.49786 6.78644 10184 ft 332 kts 63°
2026-04-26 14:37 50.50713 6.81862 9682 ft 316 kts 63°
2026-04-26 14:37 50.51593 6.84913 9190 ft 303 kts 63°
2026-04-26 14:37 50.52437 6.87847 8815 ft 289 kts 63°
2026-04-26 14:38 50.53264 6.90721 8459 ft 284 kts 63°
2026-04-26 14:38 50.54075 6.93537 8273 ft 285 kts 63°
2026-04-26 14:38 50.54895 6.96377 8264 ft 284 kts 63°
2026-04-26 14:38 50.55702 6.99179 8267 ft 283 kts 63°
2026-04-26 14:39 50.56516 7.02015 8266 ft 283 kts 63°
2026-04-26 14:39 50.57318 7.04810 8270 ft 283 kts 63°
2026-04-26 14:39 50.58130 7.07640 8272 ft 283 kts 63°
2026-04-26 14:39 50.58943 7.10473 8272 ft 283 kts 63°
2026-04-26 14:40 50.59745 7.13273 8256 ft 283 kts 63°
2026-04-26 14:40 50.60555 7.16097 7996 ft 283 kts 63°
2026-04-26 14:40 50.61362 7.18897 7615 ft 281 kts 63°
2026-04-26 14:40 50.62165 7.21673 7202 ft 274 kts 63°
2026-04-26 14:41 50.62938 7.24344 6790 ft 263 kts 63°
2026-04-26 14:41 50.63682 7.26911 6419 ft 249 kts 63°
2026-04-26 14:41 50.64384 7.29330 6038 ft 242 kts 63°
2026-04-26 14:41 50.65082 7.31741 5680 ft 243 kts 64°
2026-04-26 14:42 50.65798 7.34139 5304 ft 240 kts 63°
2026-04-26 14:42 50.66589 7.36456 4935 ft 237 kts 52°
2026-04-26 14:42 50.67860 7.37986 4525 ft 233 kts 20°
2026-04-26 14:42 50.69430 7.38239 4148 ft 229 kts 348°
2026-04-26 14:43 50.70924 7.37354 3758 ft 227 kts 330°
2026-04-26 14:43 50.72169 7.35895 3383 ft 224 kts 318°
2026-04-26 14:43 50.73300 7.34223 3057 ft 222 kts 317°
2026-04-26 14:43 50.74408 7.32604 2955 ft 208 kts 318°
2026-04-26 14:44 50.75460 7.31091 2964 ft 203 kts 319°
2026-04-26 14:44 50.76490 7.29617 2830 ft 198 kts 319°
2026-04-26 14:44 50.77509 7.28156 2555 ft 194 kts 319°
2026-04-26 14:44 50.78474 7.26761 2282 ft 183 kts 318°
2026-04-26 14:45 50.79386 7.25438 2036 ft 172 kts 318°
2026-04-26 14:45 50.79969 7.24594 1877 ft 167 kts 319°
2026-04-26 14:45 50.81042 7.23050 1580 ft 147 kts 319°
2026-04-26 14:45 50.81757 7.22015 1390 ft 133 kts 318°
2026-04-26 14:46 50.82424 7.21049 1222 ft 128 kts 317°
2026-04-26 14:46 50.83076 7.20105 1048 ft 127 kts 319°
2026-04-26 14:46 50.83730 7.19159 879 ft 126 kts 318°
2026-04-26 14:46 50.84370 7.18239 722 ft 124 kts 318°
2026-04-26 14:47 50.84997 7.17318 528 ft 124 kts 317°
2026-04-26 14:47 50.85631 7.16401 353 ft 124 kts 315°
2026-04-26 14:47 50.86242 7.15521 299 ft 103 kts 319°
2026-04-26 14:47 50.86636 7.14952 277 ft 60 kts 317°
2026-04-26 14:48 50.86839 7.14599 266 ft 35 kts 299°
2026-04-26 14:48 50.86884 7.14359 263 ft 7 kts 279°
2026-04-26 14:48 50.86888 7.14315 261 ft 2 kts 279°
2026-04-26 14:48 50.86891 7.14291 261 ft 0 kts 280°
2026-04-26 14:49 50.86894 7.14261 260 ft 0 kts 280°
2026-04-26 14:49 50.86898 7.14230 259 ft 4 kts 280°
2026-04-26 14:49 50.86904 7.14176 259 ft 7 kts 280°
2026-04-26 14:50 50.86914 7.14086 259 ft 10 kts 280°
2026-04-26 14:50 50.86930 7.13946 254 ft 16 kts 284°
2026-04-26 14:50 50.87014 7.13792 247 ft 22 kts 318°
2026-04-26 14:50 50.87123 7.13634 243 ft 18 kts 318°
2026-04-26 14:51 50.87226 7.13486 239 ft 22 kts 317°
2026-04-26 14:51 50.87345 7.13314 240 ft 24 kts 317°
2026-04-26 14:51 50.87473 7.13128 239 ft 23 kts 317°
2026-04-26 14:51 50.87550 7.13017 239 ft 15 kts 317°
2026-04-26 14:52 50.87624 7.12907 239 ft 0 kts 317°
2026-04-26 14:52 50.87631 7.12898 241 ft 0 kts 316°